#timestamp,LO_Frequency,Hit,StdDev 
1684350015.0,286047000.5,P
1684350015.9,286047000.5,N
1684350035.8,286047002.4,Y
1684350055.6,286047000.1,P
1684350075.5,286047000.5,N
1684350095.3,286046998.6,P
1684350115.1,286046996.7,Y
1684350135.9,286046996.5,P
1684350155.7,286046999.0,N
1684350175.5,286046999.5,N
1684350195.4,286046997.6,N
1684350215.2,286046996.7,N
1684350235.1,286046997.3,N
1684350236.0,286046997.3,N
1684350255.8,286046999.4,N
1684350275.6,286046999.4,N
1684350295.5,286047000.7,N
1684350315.3,286047001.1,N
1684350335.1,286046999.3,N
1684350355.9,286046999.0,N
1684350375.7,286046999.0,N
1684350395.6,286046997.3,N
1684350415.4,286046995.6,Y
1684350435.2,286046999.6,P
1684350455.1,286046998.6,P
1684350456.0,286046998.6,P
1684350475.8,286046998.4,Y
1684350495.7,286047002.3,P
1684350515.5,286047002.3,N
1684350535.3,286047002.0,N
1684350555.2,286047001.4,N
1684350575.9,286047001.9,N
1684350595.7,286047001.4,N
1684350615.6,286047003.0,N
1684350635.4,286047005.5,Y
1684350655.3,286047005.5,P
1684350675.1,286047002.1,N
1684350695.8,286047000.8,N
1684350715.7,286047000.2,N
1684350735.5,286047000.2,N
1684350755.4,286047000.0,N
1684350775.2,286046999.1,N
1684350795.0,286046999.0,N
1684350795.9,286046999.0,N
1684350815.8,286046999.1,N
1684350835.6,286046997.1,N
1684350855.4,286046998.8,N
1684350875.3,286046998.6,N
1684350895.1,286046999.2,N
1684350915.9,286046999.6,N
1684350935.7,286046998.2,N
1684350955.5,286047001.1,N
1684350975.4,286046997.0,N
1684350995.2,286046997.3,N
1684351015.0,286046997.0,N
1684351015.9,286046997.0,N
1684351035.8,286046996.9,N
1684351055.6,286046998.2,N
1684351075.5,286047000.7,N
1684351095.3,286047002.5,N
1684351115.1,286047000.8,N
1684351135.9,286047000.8,N
1684351155.7,286046998.2,N
1684351175.5,286046999.3,N
1684351195.4,286046999.0,N
1684351215.2,286047000.2,N
1684351235.1,286047000.2,N
1684351236.0,286047000.2,N
1684351255.8,286047000.9,N
1684351275.6,286046998.1,N
1684351295.5,286046999.2,N
1684351315.3,286047001.1,N
1684351335.1,286047000.3,N
1684351355.9,286047002.1,N
1684351375.7,286047003.9,N
1684351395.6,286047003.0,N
1684351415.4,286047004.1,N
1684351435.2,286047004.0,N
1684351455.1,286047001.3,N
1684351456.0,286047001.3,N
1684351475.8,286047002.0,N
1684351495.7,286047000.0,N
1684351515.5,286047000.0,N
1684351535.3,286046999.9,N
1684351555.2,286046999.7,N
1684351575.0,286046999.7,N
1684351575.9,286046999.7,N
1684351595.7,286047000.1,N
1684351615.6,286047000.4,N
1684351635.4,286046999.9,N
1684351655.3,286047000.5,N
1684351675.1,286047000.4,N
1684351676.0,286047000.4,N
1684351695.8,286047000.0,N
1684351715.7,286047002.7,N
1684351735.5,286047001.5,N
1684351755.3,286046999.8,N
1684351775.2,286046999.7,N
1684351795.0,286047000.1,N
1684351795.9,286047000.1,N
1684351815.8,286047000.9,N
1684351835.6,286047001.0,N
1684351855.4,286047000.8,N
1684351875.3,286047001.0,N
1684351895.1,286047000.9,N
1684351915.9,286047000.7,N
1684351935.7,286047000.6,N
1684351955.5,286047000.8,N
1684351975.4,286046998.4,N
1684351995.2,286046999.4,N
1684352015.0,286046999.2,N
1684352015.9,286046999.2,N
1684352035.8,286046998.8,N
1684352055.6,286046998.9,N
1684352075.5,286046998.4,N
1684352095.3,286046998.1,N
1684352115.1,286046999.6,N
1684352135.9,286046996.5,Y
1684352155.7,286046998.8,P
1684352175.5,286046999.0,N
1684352195.4,286046999.5,N
1684352215.2,286046999.2,N
1684352235.1,286046999.5,N
1684352236.0,286046999.5,N
1684352255.8,286046997.4,Y
1684352275.6,286046997.6,P
1684352295.5,286046995.1,P
1684352315.3,286046995.2,N
1684352335.1,286046995.0,N
1684352355.9,286046995.4,N
1684352375.7,286046995.8,N
1684352395.6,286046996.2,N
1684352415.4,286046997.6,N
1684352435.2,286046997.5,N
1684352455.1,286046995.0,Y
1684352456.0,286046995.0,P
1684352475.8,286047001.0,N
1684352495.7,286047000.9,N
1684352515.5,286047011.9,Y
1684352535.3,286046999.9,P
1684352555.2,286047000.4,N
1684352575.0,286047000.0,N
1684352575.9,286047000.0,N
1684352595.7,286047000.7,N
1684352615.6,286047000.9,N
1684352635.4,286047001.0,N
1684352655.3,286047000.3,N
1684352675.1,286047000.7,N
1684352676.0,286047000.7,N
1684352695.8,286047001.0,N
1684352715.7,286046998.7,N
1684352735.5,286046999.3,N
1684352755.3,286046999.5,N
1684352775.2,286046997.4,Y
1684352795.0,286046998.0,P
1684352795.9,286046998.0,N
1684352815.8,286046995.1,P
1684352835.6,286046995.3,N
1684352855.4,286046998.0,N
1684352875.3,286046999.2,N
1684352895.1,286046999.5,N
1684352915.9,286046996.8,N
1684352935.7,286046996.6,N
1684352955.6,286046999.3,N
1684352975.4,286046998.4,N
1684352995.2,286046999.4,N
1684353015.1,286046997.8,N
1684353016.0,286046997.8,N
1684353035.8,286046995.2,Y
1684353055.6,286046996.9,P
1684353075.5,286046999.4,N
1684353095.3,286046998.4,N
1684353115.2,286046999.6,N
1684353135.9,286046996.8,Y
1684353155.7,286046997.2,P
1684353175.6,286046999.6,N
1684353195.4,286046997.7,N
1684353215.3,286046997.9,N
1684353235.1,286046997.6,N
1684353236.0,286046997.6,Y
1684353255.8,286046998.3,P
1684353275.7,286046999.8,N
1684353295.5,286046999.7,N
1684353315.3,286047002.3,N
1684353335.2,286047002.8,N
1684353355.0,286047002.3,N
1684353355.9,286047002.3,N
1684353375.8,286047001.5,N
1684353395.6,286047002.0,N
1684353415.4,286047001.6,N
1684353435.3,286047002.3,N
1684353455.1,286047002.7,N
1684353475.8,286047001.6,N
1684353495.7,286047001.6,N
1684353515.5,286047004.4,N
1684353535.4,286047001.7,N
1684353555.2,286047002.0,N
1684353575.0,286047002.1,N
1684353575.9,286047002.1,N
1684353595.8,286047000.3,N
